This is the latest recevied weather packets stored in our database for station/object JI6FPP-13. If no packets are shown the sender has not sent any weather packets the latest 10 day(s).
| Time | Temp. | Humidity | Pressure | Rain* | Wind** | Luminosity | Snow |
|---|---|---|---|---|---|---|---|
| 1777682780 | 20.56° C | 35% | 1010 hPa | 0 mm | - | - | - |
| 1777682180 | 20° C | 36% | 1010 hPa | 0 mm | - | - | - |
| 1777681579 | 20° C | 37% | 1010 hPa | 0 mm | - | - | - |
| 1777680981 | 19.44° C | 38% | 1010 hPa | 0 mm | - | - | - |
| 1777680381 | 18.89° C | 39% | 1009 hPa | 0 mm | - | - | - |
| 1777679781 | 18.89° C | 38% | 1009 hPa | 0 mm | - | - | - |
| 1777679180 | 18.89° C | 39% | 1009 hPa | 0 mm | - | - | - |
| 1777678580 | 18.89° C | 42% | 1008 hPa | 0 mm | - | - | - |
| 1777677981 | 17.78° C | 44% | 1008 hPa | 0 mm | - | - | - |
| 1777677381 | 17.22° C | 45% | 1009 hPa | 0 mm | - | - | - |
| 1777676781 | 16.11° C | 47% | 1008 hPa | 0 mm | - | - | - |
| 1777676179 | 15.56° C | 49% | 1008 hPa | 0 mm | - | - | - |
| 1777675579 | 15° C | 54% | 1009 hPa | 0 mm | - | - | - |
| 1777674979 | 13.89° C | 58% | 1009 hPa | 0 mm | - | - | - |
| 1777674388 | 13.33° C | 62% | 1009 hPa | 0 mm | - | - | - |
| 1777673780 | 12.78° C | 67% | 1008 hPa | 0 mm | - | - | - |
| 1777673180 | 11.67° C | 68% | 1008 hPa | 0 mm | - | - | - |
| 1777672580 | 11.67° C | 70% | 1008 hPa | 0 mm | - | - | - |
| 1777671981 | 11.11° C | 71% | 1008 hPa | 0 mm | - | - | - |
| 1777671379 | 11.11° C | 71% | 1008 hPa | 0 mm | - | - | - |
| 1777670779 | 11.11° C | 71% | 1008 hPa | 0 mm | - | - | - |
| 1777670179 | 10.56° C | 71% | 1008 hPa | 0 mm | - | - | - |
| 1777669579 | 10.56° C | 71% | 1008 hPa | 0 mm | - | - | - |
| 1777668980 | 10.56° C | 70% | 1008 hPa | 0 mm | - | - | - |
| 1777668380 | 10.56° C | 71% | 1008 hPa | 0 mm | - | - | - |
* Rain latest hour (hover to see other rain measurements)
** Current wind speed in m/s (hover to see current wind gust speed)